Starlink 32397

operational
NORAD ID: 61593 Int'l Des: 2024-187 Owner: SPXS Country: US Constellation: starlink
LEOCIRCULAR

Starlink 32397について

説明を読み込み中...

リアルタイム位置

3D地球を読み込み中...

次回通過

高度履歴

Altitude vs Time

uPlot chart will show altitude changes over time

軌道要素

1 61593U 24187V 25259.96976852 -.00004253 00000-0 -13157-3 0 9997
2 61593 53.1605 149.9996 0001513 75.9318 284.1851 15.30195959 52515
Epoch: Sep 16, 2025 • Age: 28 hours

現在のステータス

高度 479.0 km
速度 7.63 km/s
衛星直下点 45.29°N, 139.57°E
打ち上げ日 Oct 18, 2024
運用期間 0.9 years
タイプ internet

技術仕様

分類 Payload
質量 730.00 kg
乾燥質量 700.00 kg
総質量 730.00 kg
長さ 0.30 m
直径 4.10 m
スパン 29.00 m
形状 Box + pan
製造者 SPXS
バスタイプ Starlink V2M
フェーズステータス In Orbit
所有者/国 SPXS/US

大規模コンステレーション

Loading constellations...